Location: Avon
(37.7514°N, 90.2235°W)
Time: 19:24:20
(UTC+00:00)

A-11 Canister half - All Passes

Search period start: 07 November 2024 00:00
Search period end: 17 November 2024 00:00
Orbit: 1514 x 1685 km, 47.2° (Epoch: 06 November)

Date Brightness Start Highest point End Pass type
(mag) Time Alt. Az. Time Alt. Az. Time Alt. Az.
07 Nov - 08:09:32 10° S 08:18:11 35° SE 08:26:57 10° ENE visible
07 Nov - 10:12:24 10° WSW 10:22:33 86° NNW 10:32:48 10° ENE visible
07 Nov - 12:18:45 10° W 12:28:37 51° N 12:38:26 10° ENE daylight
07 Nov - 14:25:16 10° WNW 14:35:18 58° NNE 14:45:05 10° E daylight
07 Nov - 16:30:45 10° WNW 16:40:48 72° SW 16:50:30 10° SE daylight
07 Nov - 18:37:46 10° W 18:44:28 21° SW 18:51:03 10° SSW daylight
08 Nov - 07:46:50 10° S 07:55:14 32° SE 08:03:47 10° ENE visible
08 Nov - 09:49:22 10° SW 09:59:29 89° NW 10:09:45 10° ENE visible
08 Nov - 11:55:36 10° W 12:05:29 52° N 12:15:20 10° ENE visible
08 Nov - 14:02:10 10° WNW 14:12:11 56° NNE 14:21:59 10° E daylight
08 Nov - 16:07:40 10° WNW 16:17:47 76° SW 16:27:33 10° SE daylight
08 Nov - 18:14:26 10° WNW 18:21:33 23° SW 18:28:33 10° S daylight
09 Nov - 07:24:08 10° S 07:32:18 30° SE 07:40:35 10° ENE visible
09 Nov - 09:26:22 10° SW 09:36:26 87° SE 09:46:42 10° ENE visible
09 Nov - 11:32:27 10° W 11:42:21 53° N 11:52:15 10° ENE visible
09 Nov - 13:39:05 10° WNW 13:49:04 55° NNE 13:58:52 10° E daylight
09 Nov - 15:44:36 10° WNW 15:54:46 79° SW 16:04:36 10° SE daylight
09 Nov - 17:51:08 10° WNW 17:58:38 25° SW 18:05:59 10° S daylight
10 Nov - 07:01:28 10° S 07:09:21 28° SE 07:17:22 10° ENE visible
10 Nov - 09:03:22 10° SW 09:13:24 84° SE 09:23:38 10° ENE visible
10 Nov - 11:09:20 10° W 11:19:13 54° NNW 11:29:09 10° ENE visible
10 Nov - 13:15:59 10° WNW 13:25:57 54° NNE 13:35:45 10° E daylight
10 Nov - 15:21:33 10° WNW 15:31:44 83° SW 15:41:38 10° SE daylight
10 Nov - 17:27:53 10° WNW 17:35:43 27° SW 17:43:23 10° S daylight
11 Nov - 06:38:51 10° S 06:46:25 25° SE 06:54:07 10° ENE visible
11 Nov - 08:40:22 10° SW 08:50:22 80° SE 09:00:35 10° ENE visible
11 Nov - 10:46:12 10° W 10:56:06 55° NNW 11:06:04 10° ENE visible
11 Nov - 12:52:53 10° WNW 13:02:50 53° NNE 13:12:38 10° E daylight
11 Nov - 14:58:29 10° WNW 15:08:42 86° SW 15:18:38 10° SE daylight
11 Nov - 17:04:39 10° WNW 17:12:47 29° SW 17:20:45 10° S daylight
12 Nov - 06:16:16 10° S 06:23:30 23° SE 06:30:50 10° ENE visible
12 Nov - 08:17:24 10° SW 08:27:20 76° SE 08:37:31 10° ENE visible
12 Nov - 10:23:04 10° W 10:32:59 56° NNW 10:42:59 10° ENE visible
12 Nov - 12:29:47 10° WNW 12:39:42 52° N 12:49:30 10° E daylight
12 Nov - 14:35:25 10° WNW 14:45:40 90° S 14:55:39 10° SE daylight
12 Nov - 16:41:26 10° WNW 16:49:51 31° SW 16:58:04 10° S daylight
13 Nov - 05:53:45 10° S 06:00:35 21° SE 06:07:30 10° E visible
13 Nov - 07:54:27 10° SW 08:04:19 73° SE 08:14:27 10° ENE visible
13 Nov - 09:59:56 10° W 10:09:51 58° NNW 10:19:53 10° ENE visible
13 Nov - 12:06:41 10° WNW 12:16:34 52° N 12:26:23 10° E visible
13 Nov - 14:12:21 10° WNW 14:22:37 87° NNE 14:32:37 10° ESE daylight
13 Nov - 16:18:16 10° WNW 16:26:55 34° SW 16:35:23 10° S daylight
14 Nov - 05:31:16 10° SSE 05:37:39 20° SE 05:44:08 10° E night (unlit)
14 Nov - 07:31:30 10° SW 07:41:18 69° SE 07:51:22 10° ENE visible
14 Nov - 09:36:49 10° W 09:46:45 59° NNW 09:56:48 10° ENE visible
14 Nov - 11:43:33 10° WNW 11:53:25 51° N 12:03:14 10° E visible
14 Nov - 13:49:17 10° WNW 13:59:34 83° NNE 14:09:36 10° ESE daylight
14 Nov - 15:55:05 10° WNW 16:03:58 36° SW 16:12:38 10° SSE daylight
15 Nov - 05:08:52 10° SSE 05:14:45 18° ESE 05:20:43 10° E night (unlit)
15 Nov - 07:08:35 10° SW 07:18:18 65° SE 07:28:17 10° ENE visible
15 Nov - 09:13:43 10° W 09:23:38 61° NNW 09:33:43 10° ENE visible
15 Nov - 11:20:27 10° WNW 11:30:17 51° N 11:40:06 10° E visible
15 Nov - 13:26:14 10° WNW 13:36:30 80° NNE 13:46:33 10° ESE daylight
15 Nov - 15:31:56 10° WNW 15:41:00 39° SW 15:49:53 10° SSE daylight
16 Nov - 04:46:33 10° SSE 04:51:50 16° ESE 04:57:12 10° E night (unlit)
16 Nov - 06:45:40 10° SW 06:55:18 62° SE 07:05:13 10° ENE visible
16 Nov - 08:50:37 10° W 09:00:31 62° NNW 09:10:39 10° ENE visible
16 Nov - 10:57:20 10° WNW 11:07:09 50° N 11:16:58 10° ENE visible
16 Nov - 13:03:11 10° WNW 13:13:26 77° NNE 13:23:30 10° ESE daylight
16 Nov - 15:08:47 10° WNW 15:18:03 42° SW 15:27:07 10° SSE daylight
